CPA814 VHHH-VVTS

Flight info

Callsign CPA814
Flight time N/A
Altitude 40000
Route PECAN V12 EPDOS L642 EPKAL/K0850F400 L642 SOSPA W15 VETOM VETOM5C
Aircraft A333/H-SDE3GHIJ2J3J5M1RVWXY/LB2D1

Departure

Time 2026-05-05 12:34
Airport Hong Kong International Airport (VHHH)

Arrival

Time N/A
Airport Tan Son Nhat International Airport (VVTS)
Time Latitude Longitude Altitude Speed Heading
2026-05-05 12:16 22.30675 113.91807 41 ft 0 kts 71°
2026-05-05 12:21 22.30675 113.91806 41 ft 0 kts 71°
2026-05-05 12:23 22.30674 113.91803 41 ft 3 kts 71°
2026-05-05 12:24 22.30665 113.91776 38 ft 4 kts 71°
2026-05-05 12:24 22.30656 113.91748 38 ft 4 kts 71°
2026-05-05 12:24 22.30649 113.91725 37 ft 4 kts 95°
2026-05-05 12:24 22.30660 113.91704 38 ft 4 kts 149°
2026-05-05 12:25 22.30677 113.91695 36 ft 0 kts 161°
2026-05-05 12:27 22.30676 113.91695 36 ft 2 kts 161°
2026-05-05 12:28 22.30661 113.91701 38 ft 3 kts 161°
2026-05-05 12:28 22.30634 113.91711 37 ft 5 kts 161°
2026-05-05 12:28 22.30591 113.91727 41 ft 7 kts 161°
2026-05-05 12:28 22.30539 113.91727 41 ft 8 kts 206°
2026-05-05 12:29 22.30508 113.91672 41 ft 9 kts 250°
2026-05-05 12:29 22.30483 113.91597 41 ft 12 kts 250°
2026-05-05 12:29 22.30451 113.91500 40 ft 15 kts 250°
2026-05-05 12:29 22.30413 113.91382 40 ft 18 kts 250°
2026-05-05 12:30 22.30368 113.91244 41 ft 21 kts 250°
2026-05-05 12:30 22.30317 113.91083 41 ft 24 kts 252°
2026-05-05 12:30 22.30260 113.90900 41 ft 28 kts 251°
2026-05-05 12:30 22.30195 113.90708 41 ft 26 kts 251°
2026-05-05 12:31 22.30135 113.90521 40 ft 26 kts 251°
2026-05-05 12:31 22.30075 113.90334 40 ft 27 kts 251°
2026-05-05 12:31 22.30012 113.90139 40 ft 28 kts 250°
2026-05-05 12:31 22.29947 113.89939 40 ft 28 kts 251°
2026-05-05 12:32 22.29887 113.89766 41 ft 18 kts 236°
2026-05-05 12:32 22.29793 113.89748 41 ft 14 kts 162°
2026-05-05 12:32 22.29697 113.89783 41 ft 15 kts 160°
2026-05-05 12:32 22.29642 113.89863 41 ft 12 kts 81°
2026-05-05 12:33 22.29683 113.89996 40 ft 38 kts 71°
2026-05-05 12:33 22.29847 113.90499 39 ft 102 kts 70°
2026-05-05 12:33 22.30146 113.91417 42 ft 155 kts 71°
2026-05-05 12:33 22.30577 113.92577 626 ft 169 kts 67°
2026-05-05 12:34 22.31039 113.93734 1450 ft 176 kts 68°
2026-05-05 12:34 22.31527 113.95072 1942 ft 203 kts 73°
2026-05-05 12:34 22.31963 113.96572 2900 ft 215 kts 75°
2026-05-05 12:34 22.32426 113.98157 3873 ft 226 kts 73°
2026-05-05 12:35 22.32911 113.99817 4796 ft 237 kts 72°
2026-05-05 12:35 22.33415 114.01511 5686 ft 239 kts 72°
2026-05-05 12:35 22.33778 114.03262 6508 ft 245 kts 86°
2026-05-05 12:35 22.33618 114.05100 7276 ft 249 kts 109°
2026-05-05 12:36 22.32820 114.06736 8094 ft 246 kts 133°
2026-05-05 12:36 22.31733 114.07803 8800 ft 247 kts 149°